Location: Leanderville
(37.9164°N, 89.6762°W)
Time: 13:30:51
(UTC+00:00)

Daily predictions for brighter satellites

Satellite Brightness Start Highest point End
(mag) Time Altitude Azimuth Time Altitude Azimuth Time Altitude Azimuth
Cosmos 1933 4.4 12:01:33 16° NW 12:03:15 22° W 12:06:12 10° SW
Meteor 2-3 Rocket 4.1 12:00:25 10° SW 12:05:48 41° WNW 12:11:11 10° N
DMSP B5D1-3 4.5 12:03:08 10° SSE 12:08:15 82° WSW 12:13:23 10° NNW
USA 267 4.4 12:02:55 10° NE 12:09:10 47° SE 12:15:23 10° SSW
Cosmos 1814 Rocket 4.2 12:04:14 10° SSW 12:09:26 80° ESE 12:14:42 10° NNE
Meteor 1-26 Rocket 4.2 12:04:06 10° N 12:09:40 87° W 12:15:22 10° S
Cosmos 2219 Rocket 4.2 12:05:20 10° N 12:09:53 24° ENE 12:14:22 10° ESE
NOSS 2-1 (C) 3.7 12:06:21 12° NW 12:09:54 63° WSW 12:15:13 10° SSE
Cosmos 2322 Rocket 3.2 12:06:42 10° N 12:12:12 47° ENE 12:17:38 10° SE
CBERS-1 3.9 12:08:26 10° N 12:13:32 72° WNW 12:18:33 10° SSW
COSMO-SKYMED 1 3.3 12:10:53 10° SSW 12:14:29 29° W 12:18:07 10° NW
Cosmos 2058 Rocket 3.0 12:11:16 10° NNW 12:15:41 68° W 12:20:01 10° S
Cosmos-2242 2.9 12:13:20 10° NNW 12:17:33 70° W 12:21:42 10° S
ATLAS 2AS CENTAUR R/B 3.9 12:11:06 10° S 12:17:54 49° ESE 12:24:32 10° NE
CZ-3C R/B 4.2 12:15:06 10° SW 12:20:46 30° SSE 12:49:05 10° ESE
COSMOS 2406 4.1 12:17:09 10° WSW 12:21:49 26° WNW 12:26:32 10° N
Thor Agena Rocket 3.5 12:18:44 10° NNE 12:23:48 84° WNW 12:28:48 10° SSW
SMAP 3.1 12:19:46 10° NNE 12:24:28 88° W 12:29:06 10° SSW
IRIDIUM 106 4.3 12:21:24 10° S 12:26:35 75° W 12:31:50 10° N
Landsat 7 3.9 12:25:59 10° NNE 12:30:40 85° ESE 12:35:18 10° SSW
Cosmos 2082 Rocket 3.9 12:34:24 10° WNW 12:35:57 11° NW 12:37:29 10° NNW
COSMOS 2455 3.8 12:30:57 10° NW 12:35:58 28° WSW 12:40:57 10° SSW
Cosmos 44 4.0 22:58:54 10° NW 23:04:11 68° WSW 23:09:30 10° SSE
ARIANE 5 R/B 3.0 23:02:09 10° SE 23:06:44 37° ENE 23:11:24 10° N
Cosmos 2227 Rocket 3.8 23:05:12 10° NNE 23:07:37 13° NE 23:10:01 10° ENE
NOSS 2-2 (D) 4.0 23:05:14 10° SW 23:08:46 42° NW 23:11:46 10° NNE
CENTAUR R/B 4.1 23:08:23 10° W 23:13:02 26° NW 23:18:37 10° NNE
Cosmos 2208 Rocket 4.3 23:10:19 10° N 23:15:13 42° ENE 23:20:06 10° SE
SL-16 R/B 3.4 23:11:17 10° N 23:17:17 52° WNW 23:23:14 10° SW
ATLAS CENTAUR R/B 2.2 23:16:27 10° N 23:18:41 17° NE 23:20:52 10° E
NOSS 2-2 (E) 4.0 23:15:10 10° SW 23:18:42 42° NW 23:21:41 10° NNE
Cosmos 1743 2.8 23:17:52 10° N 23:20:53 35° E 23:23:53 10° SSE
BlueWalker 3 3.0 23:18:17 10° NNW 23:21:17 24° NNE 23:24:05 11° E
Cosmos 1697 Rocket 3.3 23:16:20 10° S 23:21:23 36° ESE 23:26:26 10° NE
Cosmos 1484 Rocket 4.0 23:18:22 10° S 23:21:44 42° W 23:25:06 10° NNW
Cosmos 1626 Rocket 3.4 23:19:51 10° N 23:24:11 82° E 23:28:28 10° S
SMAP 3.0 23:20:53 10° SSE 23:25:31 76° ENE 23:30:12 10° N
Cosmos 1606 Rocket 4.3 23:23:26 10° SSE 23:27:18 32° E 23:31:14 10° NNE
Cosmos 1461 2.7 23:24:33 10° SSW 23:28:19 61° ESE 23:32:06 11° NE
SAR-Lupe-3 4.3 23:26:08 10° NNE 23:28:28 33° E 23:30:49 10° SSE
Gbstr 26 Del rocket 3.0 23:24:20 10° SW 23:28:31 57° SE 23:31:38 14° ENE
Radarsat 4.5 23:23:24 10° SSE 23:28:32 73° ENE 23:33:42 10° N
Cosmos 2151 3.3 23:25:22 10° N 23:29:19 42° E 23:33:15 10° SSE
Lacrosse 4 Rocket 4.3 23:30:05 10° NW 23:30:21 10° NW 23:30:37 10° NW
Landsat 7 3.7 23:27:00 10° SSE 23:31:36 67° ENE 23:36:13 10° N
IRS-1C 4.1 23:26:40 10° SSE 23:31:55 66° ENE 23:37:12 10° N
Meteor 1-20 Rocket 4.3 23:28:56 10° N 23:34:12 48° ENE 23:39:28 10° SSE
Cosmos 1544 Rocket 4.3 23:31:54 10° SSW 23:36:11 55° W 23:40:31 10° N
Thor Agena Rocket 4.1 23:33:03 10° S 23:38:15 66° WSW 23:43:25 10° NNW
Cosmos 1733 2.8 23:39:33 10° NNW 23:41:21 40° W 23:43:08 10° SSW
SAR-Lupe-4 3.4 23:38:44 10° SSE 23:42:16 85° E 23:45:50 10° NNW
Okean 1-7 Rocket 3.9 23:38:09 10° N 23:42:19 42° E 23:46:27 10° SSE
SAR-Lupe-1 4.0 23:46:13 10° SSE 23:49:47 90° WNW 23:53:25 10° NNW
BREEZE-M DEB (TANK) 3.2 23:50:55 10° NW 23:52:01 14° NNW 23:52:22 14° N
Cosmos 1503 Rocket 4.1 23:47:44 10° SSW 23:53:00 79° WNW 23:58:15 10° NNE
Cosmos 1726 Rocket 3.9 23:49:15 10° SSE 23:53:40 48° E 23:58:08 10° NNE
